Location: Banff
(51.1667°N, 115.5667°W)
Time: 08:35:20
(UTC+00:00)

Vanguard 1 - Pass Details

Date: 04 December 2020
Orbit: 648 x 3834 km, 34.3° (Epoch: 22 January)

Event Time Altitude Azimuth Distance (km) Brightness Sun altitude
Exits shadow 12:21:04 15° 188° (S) 2,291 11.9 -28.3°
Maximum altitude 12:23:19 18° 162° (SSE) 2,331 12.1 -28.0°
Drops below altitude 10° 12:28:15 10° 124° (SE) 3,417 13.5 -27.2°
Sets 12:33:19 0° 108° (ESE) 5,019 14.9 -26.4°
